Weather History for Taunton, MA

Change the Weather History Date:

Thursday, July 3, 2014

  Actual Average Record
Temperature  
Mean Temperature 82 °F -  
Max Temperature 90 °F 80 °F 98 °F (2002)
Min Temperature 73 °F 58 °F 43 °F (1957)
Cooling Degree Days 16    
Growing Degree Days 32 (Base 50)    
Moisture  
Dew Point 71 °F    
Average Humidity 79    
Maximum Humidity 91    
Minimum Humidity 53    
Precipitation  
Precipitation 0.00 in - - ()
Sea Level Pressure  
Sea Level Pressure 29.95 in    
Wind  
Wind Speed 8 mph (SSW)    
Max Wind Speed 15 mph    
Max Gust Speed 23 mph    
Visibility 9 miles    
Events      
Averages and records for this station are not official NWS values.
T = Trace of Precipitation, MM = Missing Value Source: NWS Daily Summary

Daily Weather History Graph

Daily Weather History Graph

Search for Another Location

Airport:

Trip Planner

Search our weather history database for the weather conditions in past years. The results will help you decide how hot, cold, wet, or windy it might be!

Date:

Astronomy

Jul. 03, 2014 Rise Set
Actual Time 5:13 AM EDT 8:22 PM EDT
Civil Twilight 4:39 AM EDT 8:56 PM EDT
Nautical Twilight 3:56 AM EDT 9:40 PM EDT
Astronomical Twilight 3:03 AM EDT 10:32 PM EDT
Moon 11:15 AM EDT (7/3) 11:37 PM EDT (7/3)
Length of Visible Light 16h 16m
Length of Day
15h 08m
Waxing Crescent, 33% of the Moon is Illuminated
Jul 3
Waxing Crescent
Jul 5
First Quarter
Jul 12
Full
Jul 18
Last Quarter
Jul 26
New

Hourly Weather History & Observations

Time (EDT) Temp. Heat Index Dew Point Humidity Pressure Visibility Wind Dir Wind Speed Gust Speed Precip Events Conditions
12:17 AM 75.0 °F - 71.1 °F 87% 29.92 in 10.0 mi SSW 11.5 mph - N/A   Scattered Clouds
12:28 AM 75.0 °F - 71.1 °F 87% 29.92 in 10.0 mi SSW 8.1 mph - N/A   Mostly Cloudy
12:52 AM 75.0 °F - 72.0 °F 90% 29.92 in 10.0 mi SSW 10.4 mph - N/A   Overcast
1:52 AM 75.0 °F - 72.0 °F 90% 29.93 in 10.0 mi South 8.1 mph - N/A   Overcast
2:52 AM 75.0 °F - 72.0 °F 90% 29.91 in 10.0 mi SSW 9.2 mph - N/A   Overcast
3:52 AM 75.0 °F - 72.0 °F 90% 29.92 in 10.0 mi SW 6.9 mph - N/A   Overcast
4:52 AM 75.0 °F - 72.0 °F 90% 29.94 in 8.0 mi SW 4.6 mph - N/A   Overcast
5:52 AM 73.9 °F - 71.1 °F 91% 29.96 in 6.0 mi WSW 5.8 mph - N/A   Overcast
6:28 AM 75.0 °F - 72.0 °F 90% 29.95 in 8.0 mi Calm Calm - N/A   Overcast
6:52 AM 75.0 °F - 71.1 °F 87% 29.95 in 10.0 mi SSW 4.6 mph - N/A   Overcast
7:52 AM 77.0 °F - 71.1 °F 82% 29.94 in 10.0 mi South 4.6 mph - N/A   Overcast
8:36 AM 79.0 °F - 71.1 °F 77% 29.95 in 10.0 mi SW 3.5 mph - N/A   Scattered Clouds
8:52 AM 80.1 °F 83.6 °F 71.1 °F 74% 29.94 in 10.0 mi SSW 3.5 mph - N/A   Partly Cloudy
10:52 AM 86.0 °F 91.5 °F 71.1 °F 61% 29.96 in 10.0 mi South 6.9 mph - N/A   Clear
11:52 AM 87.1 °F 92.0 °F 70.0 °F 57% 29.96 in 10.0 mi SW 9.2 mph - N/A   Clear
12:52 PM 90.0 °F 96.4 °F 71.1 °F 54% 29.96 in 10.0 mi SSW 9.2 mph 17.3 mph N/A   Partly Cloudy
1:52 PM 87.1 °F 91.3 °F 69.1 °F 55% 29.96 in 10.0 mi SSW 10.4 mph 18.4 mph N/A   Partly Cloudy
3:52 PM 90.0 °F 96.4 °F 71.1 °F 54% 29.93 in 10.0 mi SSW 9.2 mph - N/A   Clear
4:52 PM 89.1 °F 94.1 °F 70.0 °F 53% 29.91 in 10.0 mi Variable 5.8 mph - N/A   Clear
5:52 PM 84.9 °F 88.8 °F 69.1 °F 59% 29.91 in 10.0 mi SSW 10.4 mph 17.3 mph N/A   Clear
6:52 PM 82.0 °F 84.9 °F 68.0 °F 62% 29.92 in 10.0 mi South 11.5 mph 18.4 mph N/A   Clear
7:52 PM 77.0 °F - 70.0 °F 79% 29.94 in 10.0 mi South 9.2 mph 17.3 mph N/A   Clear
8:48 PM 77.0 °F - 71.6 °F 83% 29.94 in 10.0 mi SSW 5.8 mph - N/A   Mostly Cloudy
8:52 PM 77.0 °F - 72.0 °F 84% 29.94 in 10.0 mi South 8.1 mph - N/A   Mostly Cloudy
9:16 PM 75.9 °F - 72.0 °F 87% 29.96 in 10.0 mi South 6.9 mph - N/A   Scattered Clouds
9:33 PM 75.9 °F - 71.1 °F 85% 29.97 in 10.0 mi SSW 9.2 mph 23.0 mph N/A   Mostly Cloudy
9:52 PM 75.9 °F - 72.0 °F 87% 29.98 in 10.0 mi SSW 11.5 mph 19.6 mph N/A   Overcast
10:07 PM 75.9 °F - 72.0 °F 87% 29.98 in 9.0 mi SW 15.0 mph 23.0 mph N/A   Overcast
10:26 PM 75.0 °F - 72.0 °F 90% 29.98 in 6.0 mi SW 10.4 mph 20.7 mph N/A   Overcast
10:52 PM 75.0 °F - 72.0 °F 90% 29.98 in 7.0 mi SW 10.4 mph 18.4 mph N/A   Overcast
11:00 PM 75.9 °F - 72.0 °F 87% 29.99 in 6.0 mi SW 10.4 mph 17.3 mph N/A   Overcast
11:28 PM 75.9 °F - 72.0 °F 87% 30.01 in 10.0 mi West 9.2 mph - 0.00 in   Mostly Cloudy
11:52 PM 75.0 °F - 66.9 °F 76% 30.00 in 10.0 mi Variable 5.8 mph - 0.00 in   Partly Cloudy